TVS1582 LIME-LICJ

Flight info

Callsign TVS1582
Flight time N/A
Altitude 35000
Route LOGDI DCT EKDIR DCT LOMED DCT TORLI DCT GIANO
Aircraft B738/M-SDE2E3FGHIRWXY/LB1

Departure

Time 2026-05-01 15:12
Airport Il Caravaggio International Airport (LIME)

Arrival

Time N/A
Airport Falcone–Borsellino Airport (LICJ)
Time Latitude Longitude Altitude Speed Heading
2026-05-01 14:34 45.66707 9.69676 786 ft 0 kts 195°
2026-05-01 15:02 45.66736 9.69687 786 ft 4 kts 195°
2026-05-01 15:02 45.66762 9.69697 786 ft 3 kts 195°
2026-05-01 15:03 45.66783 9.69702 786 ft 4 kts 161°
2026-05-01 15:03 45.66801 9.69680 786 ft 4 kts 112°
2026-05-01 15:03 45.66808 9.69648 786 ft 0 kts 105°
2026-05-01 15:06 45.66808 9.69652 786 ft 1 kts 105°
2026-05-01 15:06 45.66804 9.69672 786 ft 3 kts 105°
2026-05-01 15:06 45.66797 9.69711 786 ft 5 kts 105°
2026-05-01 15:06 45.66784 9.69777 786 ft 9 kts 105°
2026-05-01 15:07 45.66766 9.69874 786 ft 11 kts 105°
2026-05-01 15:07 45.66741 9.70001 786 ft 15 kts 105°
2026-05-01 15:07 45.66712 9.70165 786 ft 19 kts 104°
2026-05-01 15:07 45.66676 9.70360 786 ft 22 kts 105°
2026-05-01 15:08 45.66637 9.70569 786 ft 21 kts 105°
2026-05-01 15:08 45.66599 9.70772 786 ft 21 kts 105°
2026-05-01 15:08 45.66563 9.70969 786 ft 20 kts 105°
2026-05-01 15:08 45.66521 9.71157 786 ft 20 kts 112°
2026-05-01 15:09 45.66479 9.71338 786 ft 19 kts 105°
2026-05-01 15:09 45.66445 9.71517 786 ft 18 kts 105°
2026-05-01 15:09 45.66452 9.71692 786 ft 18 kts 75°
2026-05-01 15:09 45.66472 9.71861 786 ft 17 kts 97°
2026-05-01 15:10 45.66443 9.72022 786 ft 16 kts 104°
2026-05-01 15:10 45.66390 9.72312 786 ft 10 kts 104°
2026-05-01 15:10 45.66373 9.72409 786 ft 10 kts 97°
2026-05-01 15:11 45.66409 9.72486 786 ft 12 kts
2026-05-01 15:11 45.66521 9.72106 786 ft 61 kts 284°
2026-05-01 15:11 45.66692 9.71181 786 ft 129 kts 285°
2026-05-01 15:12 45.66979 9.69695 950 ft 170 kts 284°
2026-05-01 15:12 45.66908 9.66507 2534 ft 170 kts 225°
2026-05-01 15:12 45.66050 9.65371 3392 ft 167 kts 224°
2026-05-01 15:13 45.63431 9.61518 5462 ft 192 kts 226°
2026-05-01 15:14 45.61543 9.58743 6819 ft 202 kts 226°
2026-05-01 15:14 45.60491 9.57228 7020 ft 227 kts 226°
2026-05-01 15:14 45.58106 9.53819 7863 ft 252 kts 226°
2026-05-01 15:15 45.55097 9.51484 9332 ft 257 kts 174°
2026-05-01 15:15 45.51709 9.53100 10303 ft 258 kts 154°
2026-05-01 15:16 45.48377 9.55194 11693 ft 265 kts 154°
2026-05-01 15:16 45.44962 9.57298 13176 ft 270 kts 154°
2026-05-01 15:17 45.41459 9.59420 14587 ft 277 kts 154°
2026-05-01 15:18 45.36060 9.62738 16486 ft 289 kts 148°
2026-05-01 15:18 45.34284 9.64271 16688 ft 309 kts 143°
2026-05-01 15:19 45.28423 9.69886 17228 ft 371 kts 143°
2026-05-01 15:19 45.23994 9.74036 18260 ft 387 kts 144°
2026-05-01 15:19 45.21728 9.76131 18908 ft 390 kts 144°
2026-05-01 15:20 45.17130 9.80361 19999 ft 399 kts 144°
2026-05-01 15:20 45.14791 9.82509 20536 ft 403 kts 144°
2026-05-01 15:20 45.12425 9.84680 21055 ft 407 kts 144°
2026-05-01 15:21 45.10039 9.86869 21578 ft 411 kts 144°
2026-05-01 15:21 45.07592 9.89110 22113 ft 415 kts 144°
2026-05-01 15:21 45.05192 9.91307 22625 ft 419 kts 144°
2026-05-01 15:21 45.02732 9.93556 23126 ft 423 kts 144°
2026-05-01 15:22 44.97744 9.98010 24071 ft 432 kts 146°
2026-05-01 15:22 44.95103 10.00183 24512 ft 435 kts 147°
2026-05-01 15:22 44.92470 10.02308 24947 ft 437 kts 147°
2026-05-01 15:23 44.89825 10.04443 25375 ft 440 kts 147°
2026-05-01 15:23 44.87165 10.06606 25802 ft 442 kts 147°
2026-05-01 15:23 44.84497 10.08786 26220 ft 445 kts 147°
2026-05-01 15:23 44.81820 10.10982 26627 ft 447 kts 147°
2026-05-01 15:24 44.79124 10.13194 27028 ft 450 kts 147°
2026-05-01 15:24 44.76414 10.15416 27417 ft 452 kts 147°
2026-05-01 15:24 44.73687 10.17649 27813 ft 455 kts 147°
2026-05-01 15:24 44.70946 10.19899 28142 ft 458 kts 146°
2026-05-01 15:25 44.68281 10.22363 28496 ft 459 kts 141°
2026-05-01 15:25 44.65698 10.25003 28886 ft 460 kts 140°
2026-05-01 15:25 44.63142 10.27704 29331 ft 460 kts 139°
2026-05-01 15:25 44.60579 10.30416 29711 ft 462 kts 139°
2026-05-01 15:26 44.57994 10.33119 30030 ft 465 kts 140°
2026-05-01 15:26 44.55381 10.35817 30342 ft 468 kts 140°
2026-05-01 15:26 44.52746 10.38509 30620 ft 470 kts 140°
2026-05-01 15:26 44.50094 10.41201 30868 ft 472 kts 140°
2026-05-01 15:27 44.47424 10.43902 31173 ft 473 kts 141°
2026-05-01 15:27 44.44762 10.46590 31567 ft 471 kts 141°
2026-05-01 15:27 44.42108 10.49268 31962 ft 470 kts 141°
2026-05-01 15:28 44.36805 10.54617 32608 ft 470 kts 141°
2026-05-01 15:28 44.34147 10.57295 32938 ft 470 kts 141°
2026-05-01 15:28 44.31502 10.59956 33413 ft 467 kts 140°
2026-05-01 15:29 44.26244 10.65240 34168 ft 465 kts 140°
2026-05-01 15:29 44.23619 10.67874 34429 ft 466 kts 140°
2026-05-01 15:29 44.18704 10.73693 34808 ft 462 kts 126°
2026-05-01 15:30 44.15311 10.79410 35233 ft 461 kts 125°
2026-05-01 15:31 44.01420 11.00257 35312 ft 470 kts 146°
2026-05-01 15:32 43.95347 11.03724 35314 ft 474 kts 160°
2026-05-01 15:32 43.89017 11.06359 35293 ft 475 kts 161°
2026-05-01 15:34 43.69998 11.14434 35294 ft 479 kts 161°